map of BAX home
Great Circle Mapper logo
BAX - Airport
Location
City:  Barnaul, Altay, Russian Federation (Russia)
ICAO / IATA:UNBB / BAX

Details
Type:Airport (Aerodrome, Airfield)
Use:Public/Civil
Latitude:5321'50"N (53.363775)
Longitude:8332'19"E (83.538533)
Datum:WGS 1984
Elevation:838 ft (255 m)
Variation:7.5E (WMM2010 magnetic declination)
Runways:1
Longest:9350 × 164 ft (2850 × 50 m), paved

Time
Time Zone:UTC+6 (DST+7)

Weather
METAR:UNBB 281230Z 26005MPS CAVOK M30/M34 Q1036 NOSIG RMK QFE754/1006 24800560
TAF:UNBB 281100Z 2812/2912 25006MPS 9999 SCT030 TM30/2812Z
TEMPO 2812/2815 VRB02MPS 1200 BR FU SCT002 BKN005
TEMPO 2815/2906 VRB02MPS 0400 FZFG FU SCT002 BKN004

Related Locations
Nearby:
Farthest:PNT: 11426 mi / 18388 km
Puerto Natales [Teniente Julio Gallardo], MA, CL

Find:

   beyond  
but within

Other Information
Maps:
NOTAMs:
Links:
Sources:

  
flag of Russian Federation (Russia)   

Sectional Chart

Flight Planning
at skyvector.com

Satellite Image

Google Maps Satellite View

 

Copyright © 2004-2014 Karl L. Swartz. All rights reserved.
The Great Circle Mapper name and logo are trademarks of the Great Circle Mapper.
All other trademarks mentioned herein belong to their respective owners.
Please see credits for attibutions and further copyright information.

  Follow gcmap on Facebook Follow gcmap on Twitter

hCard Microformat

Geo Microformat